This is the latest recevied weather packets stored in our database for station/object K9VSK-9. If no packets are shown the sender has not sent any weather packets the latest 1 day(s).
| Time | Temp. | Humidity | Pressure | Rain* | Wind** | Luminosity | Snow |
|---|---|---|---|---|---|---|---|
| 1778082626 | 11.11° C | 53% | 1016.6 hPa | 0 mm | - | - | - |
| 1778082326 | 11.11° C | 55% | 1016.5 hPa | 0 mm | - | - | - |
| 1778081425 | 11.67° C | 61% | 1016.4 hPa | 0 mm | - | - | - |
| 1778080524 | 11.11° C | 63% | 1016.4 hPa | 0 mm | - | - | - |
| 1778080225 | 11.11° C | 62% | 1016.3 hPa | 0 mm | - | - | - |
| 1778079323 | 10.56° C | 66% | 1016.2 hPa | 0 mm | - | - | - |
| 1778078422 | 10° C | 69% | 1016.2 hPa | 0 mm | - | - | - |
| 1778078122 | 9.44° C | 71% | 1016.2 hPa | 0 mm | - | - | - |
| 1778077221 | 9.44° C | 71% | 1016.3 hPa | 0 mm | - | - | - |
| 1778076320 | 8.89° C | 73% | 1016.3 hPa | 0 mm | - | - | - |
| 1778075720 | 8.33° C | 75% | 1016.3 hPa | 0 mm | - | - | - |
| 1778075119 | 7.78° C | 75% | 1016.4 hPa | 0 mm | - | - | - |
| 1778074819 | 7.78° C | 75% | 1016.3 hPa | 0 mm | - | - | - |
| 1778073918 | 7.22° C | 77% | 1016.4 hPa | 0 mm | - | - | - |
| 1778073317 | 7.22° C | 78% | 1016.3 hPa | 0 mm | - | - | - |
| 1778073017 | 7.22° C | 79% | 1016.2 hPa | 0 mm | - | - | - |
| 1778071816 | 6.67° C | 81% | 1015.6 hPa | 0 mm | - | - | - |
| 1778070915 | 6.67° C | 81% | 1015.3 hPa | 0 mm | - | - | - |
| 1778069714 | 6.11° C | 82% | 1015.1 hPa | 0 mm | - | - | - |
| 1778067912 | 5° C | 85% | 1014.5 hPa | 0 mm | - | - | - |
| 1778067612 | 5° C | 85% | 1014.4 hPa | 0 mm | - | - | - |
| 1778067011 | 4.44° C | 85% | 1013.9 hPa | 0 mm | - | - | - |
| 1778066711 | 4.44° C | 85% | 1013.9 hPa | 0 mm | - | - | - |
| 1778065810 | 4.44° C | 85% | 1013.9 hPa | 0 mm | - | - | - |
| 1778065510 | 4.44° C | 85% | 1013.7 hPa | 0 mm | - | - | - |
* Rain latest hour (hover to see other rain measurements)
** Current wind speed in m/s (hover to see current wind gust speed)